TimeCDT,TemperatureF,Dew PointF,Humidity,Sea Level PressureIn,VisibilityMPH,Wind Direction,Wind SpeedMPH,Gust SpeedMPH,PrecipitationIn,Events,Conditions,WindDirDegrees,DateUTC
12:15 AM,61.7,51.8,70,29.90,10.0,East,8.1,-,N/A,,Mostly Cloudy,80,2013-09-25 05:15:00
12:35 AM,61.3,52.0,71,29.90,10.0,ENE,8.1,-,N/A,,Scattered Clouds,70,2013-09-25 05:35:00
12:55 AM,60.8,52.0,73,29.90,10.0,East,6.9,-,N/A,,Scattered Clouds,80,2013-09-25 05:55:00
1:15 AM,59.9,52.2,76,29.90,10.0,ENE,9.2,-,N/A,,Scattered Clouds,60,2013-09-25 06:15:00
1:35 AM,59.9,52.3,76,29.90,10.0,ENE,8.1,-,N/A,,Mostly Cloudy,60,2013-09-25 06:35:00
1:55 AM,59.9,52.3,76,29.90,10.0,ENE,6.9,-,N/A,,Overcast,60,2013-09-25 06:55:00
2:15 AM,59.5,52.5,78,29.89,10.0,NE,6.9,-,N/A,,Overcast,40,2013-09-25 07:15:00
2:35 AM,58.1,52.7,82,29.89,10.0,NE,5.8,-,N/A,,Overcast,50,2013-09-25 07:35:00
2:55 AM,57.2,52.5,84,29.89,10.0,NE,6.9,-,N/A,,Mostly Cloudy,50,2013-09-25 07:55:00
3:15 AM,56.3,52.3,87,29.89,10.0,ENE,5.8,-,N/A,,Scattered Clouds,60,2013-09-25 08:15:00
3:35 AM,55.8,52.2,88,29.89,10.0,ENE,4.6,-,N/A,,Clear,60,2013-09-25 08:35:00
3:55 AM,54.7,52.2,91,29.89,10.0,NE,5.8,-,N/A,,Clear,50,2013-09-25 08:55:00
4:15 AM,54.7,52.2,91,29.89,10.0,NE,5.8,-,N/A,,Clear,50,2013-09-25 09:15:00
4:35 AM,54.5,52.0,91,29.89,10.0,NE,5.8,-,N/A,,Clear,50,2013-09-25 09:35:00
4:55 AM,53.8,51.8,93,29.89,10.0,NE,4.6,-,N/A,,Clear,50,2013-09-25 09:55:00
5:15 AM,54.1,51.8,92,29.89,10.0,ENE,5.8,-,N/A,,Clear,70,2013-09-25 10:15:00
5:35 AM,53.6,51.4,92,29.89,10.0,NE,5.8,-,N/A,,Clear,50,2013-09-25 10:35:00
5:55 AM,52.9,50.7,92,29.90,10.0,NNE,3.5,-,N/A,,Clear,30,2013-09-25 10:55:00
6:15 AM,52.3,50.7,94,29.91,10.0,NE,4.6,-,N/A,,Clear,40,2013-09-25 11:15:00
6:35 AM,52.7,50.5,92,29.91,10.0,NE,3.5,-,N/A,,Clear,50,2013-09-25 11:35:00
6:55 AM,52.7,50.5,92,29.91,7.0,NE,4.6,-,N/A,,Clear,50,2013-09-25 11:55:00
7:15 AM,52.9,50.7,92,29.92,7.0,NE,5.8,-,N/A,,Clear,50,2013-09-25 12:15:00
7:35 AM,54.3,50.9,88,29.92,10.0,NE,5.8,-,N/A,,Clear,50,2013-09-25 12:35:00
7:55 AM,55.6,51.1,85,29.92,10.0,ENE,6.9,-,N/A,,Clear,60,2013-09-25 12:55:00
8:15 AM,57.2,51.3,81,29.93,10.0,ENE,6.9,-,N/A,,Clear,70,2013-09-25 13:15:00
8:35 AM,57.9,51.8,80,29.93,10.0,ENE,6.9,-,N/A,,Clear,60,2013-09-25 13:35:00
8:55 AM,59.9,52.5,77,29.93,10.0,ENE,4.6,-,N/A,,Clear,60,2013-09-25 13:55:00
9:15 AM,61.7,53.6,75,29.94,10.0,NE,6.9,-,N/A,,Clear,50,2013-09-25 14:15:00
9:35 AM,63.5,54.1,72,29.94,10.0,ENE,6.9,-,N/A,,Clear,60,2013-09-25 14:35:00
9:55 AM,65.3,55.2,70,29.94,10.0,NE,6.9,-,N/A,,Clear,50,2013-09-25 14:55:00
10:15 AM,66.7,55.8,68,29.94,10.0,NE,4.6,-,N/A,,Clear,50,2013-09-25 15:15:00
10:35 AM,68.9,56.7,65,29.94,10.0,ENE,5.8,-,N/A,,Clear,60,2013-09-25 15:35:00
10:55 AM,70.7,56.8,61,29.94,10.0,NNE,6.9,-,N/A,,Clear,30,2013-09-25 15:55:00
11:15 AM,72.0,57.0,59,29.94,10.0,ENE,8.1,-,N/A,,Clear,60,2013-09-25 16:15:00
11:35 AM,73.0,57.9,59,29.94,10.0,NE,5.8,-,N/A,,Clear,40,2013-09-25 16:35:00
11:55 AM,73.9,58.1,58,29.94,10.0,ENE,8.1,-,N/A,,Clear,60,2013-09-25 16:55:00
12:15 PM,75.2,58.6,56,29.93,10.0,East,8.1,18.4,N/A,,Clear,90,2013-09-25 17:15:00
12:35 PM,75.6,59.0,56,29.93,10.0,East,5.8,-,N/A,,Clear,80,2013-09-25 17:35:00
1:15 PM,76.3,59.0,55,29.92,10.0,NE,11.5,-,N/A,,Clear,50,2013-09-25 18:15:00
1:55 PM,77.0,58.3,52,29.91,10.0,NE,8.1,-,N/A,,Clear,50,2013-09-25 18:55:00
2:15 PM,77.2,57.7,51,29.90,10.0,ESE,5.8,-,N/A,,Clear,110,2013-09-25 19:15:00
2:35 PM,77.7,57.9,50,29.90,10.0,East,3.5,-,N/A,,Clear,80,2013-09-25 19:35:00
2:55 PM,77.4,57.9,51,29.90,10.0,ENE,6.9,-,N/A,,Clear,60,2013-09-25 19:55:00
3:15 PM,78.4,57.6,49,29.89,10.0,ENE,6.9,-,N/A,,Clear,60,2013-09-25 20:15:00
3:35 PM,77.9,57.7,50,29.89,10.0,East,4.6,-,N/A,,Clear,90,2013-09-25 20:35:00
3:55 PM,77.9,56.7,48,29.89,10.0,ENE,3.5,-,N/A,,Clear,70,2013-09-25 20:55:00
4:15 PM,77.9,56.5,48,29.89,10.0,East,3.5,-,N/A,,Clear,80,2013-09-25 21:15:00
4:35 PM,77.5,56.3,48,29.89,10.0,Calm,Calm,-,N/A,,Clear,0,2013-09-25 21:35:00
4:55 PM,77.2,56.1,48,29.89,10.0,East,3.5,-,N/A,,Clear,90,2013-09-25 21:55:00
5:15 PM,77.0,56.5,49,29.89,10.0,ENE,3.5,-,N/A,,Clear,70,2013-09-25 22:15:00
5:35 PM,76.5,57.0,51,29.89,10.0,Calm,Calm,-,N/A,,Clear,0,2013-09-25 22:35:00
5:55 PM,75.9,56.5,51,29.89,10.0,Calm,Calm,-,N/A,,Clear,0,2013-09-25 22:55:00
6:15 PM,74.3,57.9,57,29.90,10.0,Calm,Calm,-,N/A,,Clear,0,2013-09-25 23:15:00
6:35 PM,71.1,59.0,66,29.89,10.0,Calm,Calm,-,N/A,,Clear,0,2013-09-25 23:35:00
6:55 PM,68.4,58.1,70,29.90,10.0,ENE,3.5,-,N/A,,Clear,70,2013-09-25 23:55:00
7:15 PM,66.0,57.9,75,29.90,10.0,East,3.5,-,N/A,,Clear,80,2013-09-26 00:15:00
7:35 PM,64.8,57.2,76,29.90,10.0,East,3.5,-,N/A,,Clear,80,2013-09-26 00:35:00
7:55 PM,64.6,56.3,74,29.90,10.0,ENE,4.6,-,N/A,,Clear,70,2013-09-26 00:55:00
8:15 PM,63.5,55.6,75,29.91,10.0,ENE,4.6,-,N/A,,Clear,70,2013-09-26 01:15:00
8:35 PM,64.2,55.2,73,29.91,10.0,ENE,5.8,-,N/A,,Clear,70,2013-09-26 01:35:00
8:55 PM,64.8,54.9,70,29.91,10.0,ENE,5.8,-,N/A,,Clear,70,2013-09-26 01:55:00
9:15 PM,64.8,54.7,70,29.91,10.0,ENE,5.8,-,N/A,,Clear,70,2013-09-26 02:15:00
9:35 PM,65.3,54.5,68,29.91,10.0,ENE,6.9,-,N/A,,Clear,70,2013-09-26 02:35:00
9:55 PM,65.1,54.0,67,29.91,10.0,East,6.9,-,N/A,,Clear,80,2013-09-26 02:55:00
10:15 PM,64.6,53.4,67,29.92,10.0,East,9.2,-,N/A,,Clear,80,2013-09-26 03:15:00
10:35 PM,64.0,52.9,67,29.92,10.0,East,9.2,-,N/A,,Clear,90,2013-09-26 03:35:00
10:55 PM,63.3,52.9,69,29.93,10.0,East,8.1,-,N/A,,Clear,90,2013-09-26 03:55:00
11:15 PM,62.1,52.7,71,29.93,10.0,East,11.5,-,N/A,,Clear,90,2013-09-26 04:15:00
11:35 PM,61.3,52.7,73,29.93,10.0,East,9.2,-,N/A,,Clear,90,2013-09-26 04:35:00
11:55 PM,60.6,52.5,75,29.93,10.0,East,9.2,-,N/A,,Clear,90,2013-09-26 04:55:00